Reflectivity
-20 -20 -20 -20 -20 -20 -16 -20 -20 -20 -20 -20 -20 -20 -20 -20 -20 -20 -20 -20 -20 -20 -20 -20 -20 -20 -20 -8 -4 1 19 -20 -13 -12 -6 5 -4 8 18 -4 -20 -20 19
-20 -20 -11 -3 -10 -20 -20 -20 -20 -20 -20 -20 -20 -20 -20 -20 -20 -20 -20 -20 -20 -20 -20 -20 -20 -20 -20 -20 -18 10 -7 6 -20 13 -3 25 16 -8 -6 21 17 -6 -3
-9 -0 -18 -19 -20 -20 -20 -20 -20 -20 -20 -20 -20 -20 -20 -20 -20 -20 -20 -20 -20 -20 -20 -20 -20 -20 -20 -20 -20 -20 -20 -19 -20 -20 -20 -20 -20 -18 -20 -20 20 24 -1
-20 -20 -20 -20 -20 -20 -20 -20 -20 -20 -20 -20 -20 -20 -20 -20 -20 -20 -20 -20 -20 -20 -20 -20 -20 -20 -20 -20 -20 -20 -20 -20 -20 -20 -20 -20 -20 -20 -20 -20 -20 -20 12
-20 -20 -20 -20 -20 -20 -20 -20 -20 -20 -20 -20 -20 -20 -20 -20 -20 -20 -20 -20 -20 -20 -20 -20 -20 -20 -20 -20 -20 -20 -20 -20 -20 -20 -20 -20 -20 -20 -20 -20 -20 -20 -20
-20 -20 -20 -20 -20 -20 -20 -20 -20 -20 -20 -20 -20 -20 -20 -20 -20 -20 -20 -20 -20 -20 -20 -20 -20 -20 -20 -20 -20 -20 -20 -20 -20 -20 -20 -20 -20 -20 -20 -20 -20 -20 -17
-20 -20 -20 -20 -20 -20 -20 -20 -20 -20 -20 -20 -20 -20 -20 -20 -20 -20 -20 -20 -20 -20 -20 -20 -20 -20 -20 -20 -20 -20 -20 -20 -20 -20 -20 -20 -20 -20 -20 -20 -20 -20 -20
-20 -20 -20 -20 -20 -20 -20 -20 -20 -20 -20 -20 -20 -20 -20 -20 -20 -20 -20 -20 -20 -20 -20 -20 -20 -20 -20 -20 -20 -20 -20 -20 -20 -20 -20 -20 -20 -20 -20 -20 -20 -17 10
-20 -20 -20 -20 -20 -20 -20 -20 -20 -20 -20 -20 -20 -20 -20 -20 -20 -20 -20 -20 -20 -20 -20 -20 -20 -20 -20 -20 -20 -20 -20 -20 -20 -20 -20 -20 -20 -20 -20 -2 10 15 20
-20 -20 -20 -20 -20 -20 -20 -20 -20 -20 -20 -20 -20 -20 -20 -20 -20 -20 -20 -20 -20 -20 -20 -20 -20 -20 -20 -20 -20 -20 -20 -20 -20 -20 -20 -20 -20 -20 -20 -9 10 6 15
-20 -20 -20 -20 -20 -20 -20 -20 -20 -20 -20 -20 -20 -20 -20 -20 -20 -20 -20 -20 -20 -20 -20 -20 -20 -20 -20 -20 -20 -20 -20 -20 -20 -20 -20 -20 -8 -20 -10 15 -20 -20 -20
-20 -20 -20 -20 -20 -20 -20 -20 -20 -20 -20 -20 -20 -20 -20 -20 -20 -20 -20 -20 -20 -20 -20 -20 -20 -20 -20 -20 -20 -20 -20 -20 -20 -20 -20 -20 -20 -20 -20 -20 -20 -20 -20
-20 -20 -20 -20 -20 -20 -20 -20 -20 -20 -20 -20 -20 -20 -20 -20 -20 -20 -20 -20 -20 -20 -20 -20 -20 -20 -20 -20 -20 -20 -20 -20 -20 -20 -20 -20 -0 -13 -20 -20 -20 -19 -4
-20 -20 -20 -20 -20 -20 -20 -20 -20 -20 -20 -20 -20 -20 -20 -20 -20 -20 -20 -20 -20 -20 -20 -20 -20 -20 -20 -20 -20 -20 -20 -20 -20 -20 -20 -20 -20 -20 -20 -20 -20 -19 -10
-20 -20 -20 -20 -20 -20 -20 -20 -20 -20 -20 -20 -20 -20 -20 -20 -20 -20 -20 -20 -20 -20 -20 -20 -20 -20 -20 -20 -20 -20 -20 -20 -20 -20 -20 -20 -20 -16 -20 6 -18 -15 -9
-20 -20 -20 -20 -20 -20 -20 -20 -20 -20 -20 -20 -20 -20 -20 -20 -20 -20 -20 -20 -20 -20 -20 -20 -20 -20 -20 -20 -20 -20 -20 -20 -20 -20 -20 -20 -20 -20 5 -16 -7 12 16
-20 -20 -20 -20 -20 -20 -20 -20 -20 -20 -20 -20 -20 -20 -20 -20 -20 -20 -20 -20 -20 -20 -20 -20 -20 -20 -20 -20 -20 -20 -20 2 2 -20 -20 -20 -1 2 -17 -4 -16 -18 -20
-20 -20 -20 -20 -20 -20 -20 -20 -20 -20 -20 -20 -20 -20 -20 -20 -20 -20 -20 -20 -20 -20 -9 -20 -20 -20 -20 -20 -20 -20 -20 -20 -20 -20 -20 -9 -16 -20 -20 -20 -20 -3 23
-20 -20 -20 -20 -20 -20 -20 -20 -20 -20 -20 -20 -20 -20 -20 -20 -20 -20 -20 -20 -20 -20 -20 -5 -20 -20 -20 1 -9 -20 -20 -20 -20 -20 -20 -20 -20 -19 -2 10 23 15 -7
-20 -20 -20 -20 -20 -20 -20 -20 -20 -20 -20 -20 -20 -20 -20 -20 -20 -20 -20 -10 -20 -20 -20 -20 4 -19 19 -12 -20 -20 -20 -20 -20 -20 -20 -7 -6 -12 -18 -20 -20 -20 -20
-20 -20 -20 -20 -20 -20 -20 -20 -20 -20 -20 -20 -20 -20 -20 -20 -20 -20 -2 -20 -0 -20 6 12 -20 9 -16 -20 -20 -20 -20 -20 -15 5 -14 -20 -10 -20 -20 -20 -20 -20 -5
-20 -20 -20 -20 -20 -20 -20 -20 -20 -20 -20 -20 -20 -20 -20 -20 -20 -1 -20 -20 9 11 8 8 21 -20 -20 -20 -20 -20 -1 15 -20 -20 -5 -20 -15 -20 -20 -20 -5 5 5
-20 -20 -20 -20 -20 -20 -20 -20 -20 -20 -20 -20 -20 -20 -20 -20 -20 -20 -20 10 -1 1 18 -16 -20 -20 -16 6 11 11 -16 -4 -3 -17 -15 -15 -20 -20 -20 -20 -20 -16 -14
-20 -20 -20 -20 -20 -20 -20 -20 -20 -20 -20 -20 -20 -20 -20 -20 -20 6 2 -15 14 -0 -20 -20 -8 3 7 -11 -4 -9 2 7 -8 -18 -20 -15 -20 -20 -20 -20 -20 -20 -15
-20 -20 -20 -20 -20 -20 -20 -20 -20 -20 -20 -20 -20 -20 -20 -20 -20 -19 12 13 -20 -20 -20 -3 12 -6 -20 -17 -14 12 -4 4 -20 -20 -20 -20 -20 -20 -20 -20 -20 -20 -5
-20 -20 -20 -20 -20 -20 -20 -20 -20 -20 -20 -20 -20 -20 -20 -20 11 22 -8 -20 -20 -20 -4 -20 -20 -20 -20 -20 -5 -9 -1 9 -17 -19 -20 -3 -19 -20 3 -20 -20 -20 -20
Wind_Speed
3 1 2 3 3 3 4 4 4 5 6 6 6 6 6 7 6 3 3 10 13 16 18 18 18 19 19 18 19 19 17 18 20 19 19 21 23 25 26 26 26 26 27
3 4 5 5 4 4 4 4 4 5 4 5 6 6 6 5 6 6 4 5 13 14 16 18 18 17 20 20 15 14 14 16 16 19 21 22 22 21 25 27 27 27 27
7 5 5 5 4 4 5 5 5 5 5 6 6 6 6 7 6 7 5 5 6 9 15 18 18 21 21 21 21 20 19 19 19 18 19 18 16 17 19 22 25 28 29
6 6 5 4 4 5 4 4 5 5 5 5 5 5 6 5 6 7 6 5 5 5 9 16 20 20 21 21 21 21 21 21 19 19 21 19 20 19 18 18 20 22 26
6 6 5 4 5 5 5 4 3 3 3 5 6 5 6 4 3 5 7 6 6 5 5 10 14 14 17 19 21 22 22 23 21 20 21 22 21 21 21 21 19 18 21
7 6 5 5 5 4 5 4 4 3 1 4 4 7 5 2 2 6 6 6 5 6 5 5 5 7 17 24 23 24 24 22 21 21 21 21 20 21 22 23 23 22 22
7 6 5 5 5 5 3 4 3 4 3 5 2 4 4 2 4 11 5 6 7 10 6 9 6 6 6 17 21 22 22 23 21 21 21 21 22 22 23 24 25 26 23
6 6 6 5 5 4 6 5 5 3 2 4 3 2 5 6 7 12 6 6 10 7 9 11 8 6 7 4 11 20 24 20 21 21 22 24 24 25 23 26 27 27 25
7 6 6 5 5 4 4 3 4 4 2 3 6 4 5 3 11 2 8 4 14 5 10 6 9 6 6 8 8 13 19 20 24 23 24 26 25 27 27 28 29 28 29
6 6 6 6 5 3 4 3 4 2 3 4 3 4 2 4 4 8 4 11 4 11 7 5 7 5 8 7 12 15 17 25 26 25 26 27 28 30 31 30 32 32 27
6 6 6 5 4 3 3 4 5 5 3 2 2 3 2 2 4 4 12 6 10 9 8 6 5 6 7 6 5 7 25 25 25 27 29 31 32 32 32 33 33 32 34
3 5 4 4 3 4 4 4 4 5 4 3 2 3 2 3 7 6 9 11 12 8 5 6 6 7 5 4 9 21 19 24 28 31 32 32 33 33 34 34 33 33 33
2 2 2 3 3 3 5 5 5 5 4 3 4 4 2 4 3 5 7 12 12 10 8 5 5 4 5 4 4 16 23 28 30 31 32 34 34 33 32 33 33 31 33
3 1 2 3 4 5 5 5 3 4 4 4 6 5 4 4 4 4 7 10 15 12 10 8 3 4 4 2 11 21 11 23 27 30 31 33 33 33 33 32 33 32 32
2 3 3 3 4 5 5 5 4 5 5 4 6 5 3 4 4 6 7 7 9 14 14 10 9 5 4 5 11 12 12 18 28 29 31 32 32 33 33 32 33 32 29
2 3 4 4 5 5 5 5 5 6 6 4 5 5 4 4 6 7 7 7 7 10 15 11 10 9 8 8 13 14 11 23 24 30 31 32 36 36 33 35 35 33 35
2 3 4 5 6 6 6 6 6 7 6 6 5 5 6 6 7 8 8 8 8 8 11 15 11 11 11 11 13 10 11 11 11 28 33 36 35 34 34 34 35 35 34
2 4 4 5 6 6 6 6 7 7 7 7 6 5 6 7 10 9 7 10 10 10 9 15 15 11 13 13 9 11 10 12 13 22 32 32 33 34 34 34 33 32 28
4 4 5 6 6 7 7 7 6 7 7 6 6 5 6 8 10 9 10 10 8 8 9 11 14 12 13 6 9 12 13 14 12 25 28 29 31 32 32 31 28 31 33
4 5 5 6 6 7 7 7 7 7 7 6 6 6 6 8 10 11 11 9 10 11 11 11 11 13 7 11 9 12 14 11 13 12 18 23 27 28 29 33 34 32 30
4 5 6 7 6 7 6 10 9 7 6 6 6 6 7 11 21 19 12 12 14 12 10 9 13 11 9 12 12 11 14 14 13 8 13 13 10 11 14 23 25 29 29
6 5 6 6 7 7 18 20 18 10 6 6 7 7 7 14 14 22 24 28 24 16 16 12 8 12 14 13 12 12 14 8 18 10 9 14 11 13 12 12 25 31 32
5 6 6 6 7 7 19 21 22 10 8 7 8 9 9 9 16 12 20 26 23 25 19 15 14 13 15 15 13 14 15 13 13 13 13 15 11 13 12 13 28 31 32
5 5 6 7 6 7 18 21 23 7 6 7 9 9 8 10 11 18 17 14 13 10 10 10 12 14 14 15 16 14 15 15 12 12 11 15 11 14 13 12 29 32 32
4 4 5 7 6 7 16 21 18 8 8 9 7 7 9 13 20 29 18 12 12 12 16 22 22 25 28 26 23 12 10 12 13 12 12 12 12 13 13 14 14 28 28
5 5 7 6 10 7 13 20 18 7 8 8 8 8 18 20 28 25 16 13 14 15 13 12 12 14 17 16 24 13 10 12 12 13 11 10 12 11 10 10 7 9 11
Wind_Direction
118 96 45 40 23 19 41 37 29 18 10 355 350 354 342 339 332 330 309 304 312 323 325 331 329 322 302 291 289 296 292 289 284 281 278 273 265 261 258 253 253 253 249
103 82 62 43 34 35 45 40 31 19 5 356 350 344 329 331 334 330 323 334 336 342 355 4 1 2 11 3 340 328 315 302 299 303 303 295 284 276 269 263 258 256 253
79 76 71 47 24 29 38 33 20 18 18 358 347 335 333 337 336 340 351 348 344 341 359 3 14 8 12 3 357 347 348 360 355 350 342 331 316 296 285 280 272 265 260
80 76 68 48 31 36 34 35 20 6 7 359 330 320 323 337 342 356 348 350 346 355 349 1 5 5 4 360 2 352 346 341 335 341 347 343 343 330 314 299 286 277 270
73 76 64 46 43 40 31 20 12 30 6 345 319 313 311 331 359 358 347 344 341 356 344 357 351 352 356 1 351 352 345 338 330 335 334 324 323 327 323 317 312 307 296
72 76 61 52 46 48 27 18 9 343 353 325 320 308 301 313 29 9 347 346 349 355 341 333 340 337 357 353 357 349 346 342 343 341 336 335 333 329 326 323 319 314 314
70 68 59 48 40 53 36 25 346 351 328 337 340 309 317 335 43 355 356 347 360 349 350 354 346 344 343 351 349 345 344 340 332 332 328 325 321 319 319 316 311 306 316
69 71 67 53 42 40 26 23 29 340 319 12 338 329 346 330 354 325 337 344 351 347 347 341 327 336 343 335 331 344 338 339 340 328 323 317 316 314 315 313 313 310 307
68 68 64 62 49 46 30 7 11 35 348 316 13 69 350 313 322 317 313 337 338 331 327 318 314 320 338 332 336 336 325 340 330 325 323 319 315 313 308 306 299 298 299
68 65 65 58 52 38 29 349 11 12 15 12 346 30 193 247 317 321 329 317 313 316 300 299 304 313 327 315 316 319 329 328 324 324 318 315 312 307 303 301 296 297 296
67 64 62 56 47 31 12 13 6 12 21 4 9 331 322 262 241 262 302 315 308 310 304 294 297 307 309 298 312 307 326 330 325 319 314 311 309 306 302 299 298 298 294
59 50 56 53 40 21 4 353 354 6 3 357 330 323 292 303 312 303 299 303 298 294 276 298 293 302 285 303 317 332 328 320 318 315 312 309 307 307 303 298 295 291 292
57 25 46 30 16 356 360 359 355 355 344 342 320 303 272 263 268 285 301 306 301 307 295 279 264 266 285 304 334 317 319 318 311 308 307 307 303 300 303 299 294 294 284
153 134 62 28 12 5 357 356 340 329 329 315 309 305 288 291 290 287 297 304 304 301 300 298 274 259 273 274 305 305 299 295 298 301 301 304 302 300 294 295 290 288 287
123 66 39 10 359 357 346 342 331 319 313 299 302 294 298 291 291 297 292 284 288 306 301 304 301 292 276 278 285 292 286 289 298 298 301 300 298 295 293 291 289 288 286
58 35 5 357 342 335 335 338 320 309 309 301 303 318 299 300 308 306 297 292 285 286 296 304 303 299 291 293 289 294 295 294 294 292 295 296 297 290 290 291 292 290 289
52 14 346 341 334 334 325 324 309 294 295 294 295 299 300 297 310 304 296 293 287 281 282 295 298 304 298 290 294 294 291 286 278 287 292 294 292 295 293 293 292 290 286
18 353 338 331 328 321 315 307 298 301 297 297 294 304 290 310 309 303 296 293 285 282 278 288 301 301 292 292 301 291 287 291 286 287 290 293 297 295 295 291 288 283 294
354 340 337 335 326 317 310 304 292 287 286 288 287 283 283 309 308 298 290 288 287 290 294 287 292 296 293 307 302 296 294 294 288 286 292 293 294 296 293 294 293 293 299
345 342 340 329 323 314 306 293 287 291 294 284 273 273 280 288 294 293 294 302 307 301 296 290 289 297 299 307 295 303 302 295 290 288 289 290 291 293 295 299 297 294 292
353 348 346 333 324 325 323 329 321 306 291 287 283 272 266 289 310 307 307 312 304 301 292 297 295 286 308 307 304 302 293 291 294 298 292 287 284 283 283 286 284 286 283
357 352 342 328 321 328 332 336 335 325 313 295 281 279 275 295 292 306 311 306 303 306 302 299 321 302 301 301 294 289 293 317 304 295 285 294 287 285 282 277 279 285 288
347 336 330 326 316 313 336 339 339 334 325 314 304 294 300 306 310 293 290 295 300 302 316 304 305 295 295 293 294 304 299 292 290 298 295 289 290 282 280 279 286 286 286
337 324 314 310 307 314 339 344 339 341 323 302 298 295 287 289 286 301 300 312 307 307 298 294 288 293 291 301 299 302 299 291 285 286 285 285 293 284 285 281 282 282 284
321 302 296 304 312 305 336 340 338 326 313 304 294 288 295 304 303 309 324 323 310 308 304 310 309 311 308 308 308 304 299 303 296 294 293 288 289 287 285 280 274 279 281
294 303 309 311 316 314 319 332 333 316 308 302 297 292 300 309 316 331 327 332 318 307 313 318 316 309 306 297 304 302 296 292 292 294 291 291 291 293 291 281 275 281 277